Theta_e
354 353 353 355 353 353 351 353 356 355 357 354 356 355 355 354 356 357 358 357 354 354 355 352 354 354 353 351 350 353 354 355 356 354 355 355 357 359 356 355 356 357 356 356 357 357 357 356 356 356 357 357 358 356 356 357 357 357 358 358 359 361 362 363 364 363 364 363 364 363 360 360 361 361 361 362 362 362 363 362 363 363 362 363 363
352 353 353 354 355 357 358 356 355 356 355 358 355 354 354 355 356 358 356 358 356 356 358 354 351 351 352 352 350 349 355 353 355 355 358 357 357 360 356 355 358 357 357 357 358 359 358 359 358 359 359 358 358 358 358 358 358 359 361 362 363 363 364 364 364 364 364 364 364 364 363 362 363 363 363 363 363 363 363 363 363 363 363 363 363
354 357 358 360 361 361 358 358 354 357 358 356 359 359 356 356 356 357 359 359 357 356 355 356 355 350 351 349 350 353 351 355 353 353 352 356 358 361 356 357 356 359 360 359 359 359 359 359 359 360 359 359 359 358 359 359 361 362 363 364 365 365 365 365 365 365 366 366 365 365 365 365 365 364 365 365 365 365 365 365 365 364 364 364 363
359 362 362 361 359 357 357 359 356 357 360 359 356 358 358 357 361 362 362 360 359 356 359 352 353 350 351 347 351 351 350 353 349 348 351 356 358 358 362 357 356 360 361 361 361 360 360 360 360 361 361 361 361 362 362 363 363 364 364 364 365 365 365 366 366 367 367 367 367 367 367 367 367 367 367 367 367 367 367 367 366 366 366 365 365
365 364 363 360 360 359 357 358 359 359 361 359 359 360 358 356 359 360 359 361 356 357 356 353 351 353 351 348 350 349 351 351 353 351 349 354 356 357 359 362 363 357 361 363 362 362 362 362 362 362 362 363 363 364 364 364 365 365 365 365 366 366 367 367 367 367 368 369 369 369 369 369 369 369 369 368 368 368 368 368 367 366 366 366 366
365 364 362 358 360 360 358 358 362 366 364 362 355 355 355 357 356 358 356 358 354 356 352 352 352 351 352 350 351 352 353 348 349 348 351 351 353 359 357 360 361 366 365 361 362 363 364 364 363 364 364 364 365 365 365 366 366 366 367 367 367 367 368 368 368 369 369 370 370 370 370 370 370 370 370 370 370 369 369 368 367 367 367 366 366
368 366 361 362 358 360 361 362 367 368 363 361 357 358 358 356 356 357 359 358 354 355 354 354 353 351 353 354 350 351 352 349 351 350 350 355 356 354 359 359 357 361 363 367 364 363 363 363 363 363 363 364 365 366 366 367 367 366 367 368 368 369 369 369 369 370 370 370 369 370 370 370 370 369 369 370 370 369 369 367 367 367 367 367 366
368 367 364 362 360 359 360 366 368 367 364 363 363 358 359 357 358 358 355 354 355 352 354 355 352 349 350 353 352 353 350 351 351 349 349 355 356 357 359 359 361 359 358 360 364 372 364 363 363 363 364 364 365 366 367 367 367 367 367 368 369 369 370 370 370 370 370 370 370 370 370 370 371 371 371 370 370 369 368 368 368 367 367 367 367
368 368 368 363 360 361 360 364 368 366 366 365 361 360 358 351 361 362 360 356 352 350 352 353 350 349 349 348 349 353 353 355 352 352 351 355 356 352 355 358 358 355 363 361 364 367 369 367 365 365 365 366 367 367 368 369 369 368 368 368 369 370 371 372 372 371 370 370 370 371 371 372 372 372 371 371 371 370 369 368 367 367 368 367 367
368 369 367 364 363 362 363 365 367 367 367 364 363 361 361 357 358 363 361 360 355 352 351 351 347 345 348 348 352 350 351 354 355 356 355 354 355 355 355 353 355 354 355 359 357 360 365 371 366 367 367 367 366 367 367 367 367 369 369 370 372 372 372 372 373 372 371 371 371 372 372 373 373 371 370 370 370 369 368 367 367 367 367 367 367
368 368 368 363 362 364 365 366 368 367 367 365 362 363 364 362 360 362 365 361 357 356 354 354 347 346 345 348 349 352 354 350 355 354 352 351 351 352 350 356 354 355 359 360 356 360 362 364 367 371 375 365 369 368 367 367 367 367 368 368 369 370 373 373 372 371 372 373 373 374 373 372 371 371 371 370 370 368 368 368 368 368 368 368 367
370 369 371 366 362 362 365 367 367 367 366 363 361 362 366 367 364 362 361 360 359 357 355 353 350 349 348 350 349 351 350 351 352 351 354 352 353 354 351 351 355 355 353 356 356 355 360 364 365 363 361 368 368 369 367 367 367 368 368 368 368 369 370 371 372 372 372 373 374 372 370 370 371 371 371 370 369 368 368 367 367 368 368 368 367
370 371 368 364 366 365 367 367 367 367 367 366 365 366 368 368 365 367 359 358 357 355 354 353 349 345 349 347 349 350 350 350 349 349 348 349 350 350 350 352 353 354 358 355 355 355 355 364 362 362 362 364 374 368 368 369 368 368 367 367 368 369 369 370 372 373 373 373 373 370 369 368 369 370 370 369 369 368 368 366 366 367 367 367 368
371 372 371 367 365 363 366 367 366 368 367 368 368 367 369 369 365 365 364 355 356 353 353 352 346 342 341 341 343 346 349 347 346 345 346 347 349 351 353 347 348 350 354 357 357 353 351 357 361 358 361 364 363 364 371 381 378 366 369 369 368 368 369 371 373 373 373 372 372 370 369 368 369 369 369 369 368 368 367 366 366 366 366 366 365
372 371 370 366 365 365 365 367 368 367 369 368 368 369 367 364 365 361 361 358 354 354 357 354 346 343 346 343 337 339 342 344 345 346 344 346 346 346 347 346 346 350 354 355 355 356 350 352 356 358 361 364 363 361 363 366 365 371 369 366 366 367 368 369 370 371 372 373 371 370 370 369 369 369 368 368 368 368 367 366 366 365 365 365 365
366 366 367 368 367 368 365 365 369 368 367 365 365 365 365 365 362 363 364 358 354 354 355 354 352 345 341 339 338 337 334 339 343 343 345 344 344 344 345 344 345 347 353 350 347 353 355 356 356 360 365 366 367 364 362 360 366 368 371 371 366 366 367 367 368 370 371 372 371 370 369 369 369 368 368 368 368 367 366 366 365 365 365 365 365
366 367 367 369 370 369 368 366 367 368 366 366 364 362 363 365 365 364 362 358 355 354 355 355 352 353 348 341 336 336 338 338 337 340 343 342 343 344 345 345 345 348 346 345 348 353 349 349 356 359 364 369 371 368 365 366 365 369 373 372 372 367 366 366 367 368 370 370 370 370 370 369 368 367 368 368 367 366 365 365 364 365 365 365 365
366 368 368 369 370 369 370 368 367 368 363 364 364 360 363 365 366 363 362 365 362 358 353 354 355 357 354 348 347 344 340 343 336 338 347 343 343 345 345 345 345 347 351 349 349 349 353 351 356 357 359 361 362 362 362 361 370 366 368 373 363 365 365 366 366 367 369 370 370 369 370 368 367 367 367 367 367 365 365 364 364 364 364 364 365
365 368 370 372 373 371 372 368 366 367 366 365 364 360 359 362 365 368 365 364 365 363 353 352 354 356 352 351 352 354 349 345 343 341 338 346 344 344 344 346 345 345 345 346 347 348 352 354 349 353 357 361 361 361 363 362 363 365 365 365 364 365 365 364 365 366 367 368 369 367 368 368 367 366 365 364 365 365 364 365 364 364 365 366 366
365 368 371 371 371 371 371 369 366 368 364 364 363 362 363 367 365 367 367 366 364 361 361 357 351 353 354 354 354 352 351 349 351 345 342 340 342 345 347 348 346 346 348 348 349 351 352 354 355 354 355 359 364 364 363 363 366 367 366 362 365 366 364 362 363 366 365 367 367 366 367 366 365 365 364 365 365 364 364 365 365 366 366 367 365
365 366 368 369 369 367 373 370 368 368 364 365 364 364 365 366 366 366 365 364 365 364 364 361 356 355 357 360 355 355 352 352 350 350 343 342 340 342 344 349 349 350 352 350 352 354 354 355 356 351 360 363 365 364 363 366 363 368 366 366 365 365 363 362 362 365 363 364 366 366 366 365 365 365 366 365 365 365 365 364 365 365 365 365 365
367 366 368 367 366 368 367 368 367 365 364 368 367 366 365 368 367 366 366 363 365 363 362 361 358 359 358 356 357 354 352 352 350 349 348 348 341 340 343 343 343 345 351 351 353 353 355 356 354 355 360 363 364 364 366 367 364 359 364 362 364 364 363 362 362 364 362 363 364 364 364 364 364 364 364 364 364 364 365 365 365 365 365 365 364
362 367 364 363 366 367 367 366 367 369 365 367 367 363 363 363 364 366 367 365 362 364 362 362 361 361 359 358 354 353 353 348 350 349 348 347 346 342 346 353 344 343 352 352 353 353 355 355 354 356 361 362 365 363 364 366 364 365 361 361 361 364 363 362 363 361 360 361 361 362 363 363 362 362 363 363 363 363 363 363 364 364 365 365 365
362 361 363 361 366 367 369 369 368 369 368 367 367 365 364 364 364 367 368 366 368 366 363 363 361 363 358 357 356 354 355 351 352 353 350 351 347 345 344 349 349 349 352 354 352 351 354 354 355 356 358 360 364 363 363 365 370 358 367 357 360 361 362 364 362 361 360 359 358 359 360 360 361 361 362 362 362 362 363 363 363 364 364 365 364
359 359 359 361 366 366 369 369 370 370 371 372 370 368 369 366 366 365 365 366 366 368 363 362 362 359 358 359 356 354 354 355 353 351 353 350 351 345 348 350 347 349 354 351 349 349 354 356 359 358 359 362 361 364 362 363 365 363 364 360 358 360 359 362 362 360 360 358 357 359 359 359 360 361 361 360 360 361 362 362 362 363 363 363 362
357 359 359 361 362 365 369 370 373 373 375 375 373 373 373 370 366 366 363 365 368 368 367 363 363 361 359 357 357 356 355 359 356 353 353 352 350 349 352 352 350 348 351 352 354 348 352 355 358 362 360 361 363 361 362 358 363 365 362 366 358 354 356 361 361 360 358 358 357 357 357 358 359 360 360 360 360 360 360 360 361 361 361 361 359
360 363 364 364 362 365 368 369 371 373 375 373 367 369 374 372 368 370 369 364 367 366 364 363 359 360 361 359 358 356 357 358 356 360 352 353 352 352 353 350 348 347 347 351 354 350 346 355 353 359 362 364 364 365 359 356 361 360 366 367 367 352 355 354 358 357 358 357 357 356 356 357 358 358 359 360 359 360 359 359 360 359 359 357 357
365 366 366 366 366 364 366 367 370 370 372 372 371 367 372 367 369 369 369 361 365 367 366 363 362 362 361 363 362 355 358 358 358 357 357 358 357 357 356 354 349 344 347 346 345 349 351 348 355 356 360 363 359 363 361 357 355 360 365 362 358 363 354 354 354 354 354 354 354 354 354 355 356 356 357 357 358 357 358 358 358 358 358 356 356
362 365 366 368 368 366 366 365 368 370 370 371 369 369 372 368 365 370 368 364 368 368 366 364 366 361 360 361 361 361 360 363 362 359 361 364 360 359 358 354 357 351 346 345 350 345 351 352 347 358 361 362 362 357 359 357 359 356 355 359 358 362 354 350 350 351 351 349 350 350 352 353 354 355 354 354 355 355 356 356 355 356 356 354 354
362 362 364 365 366 367 366 367 367 367 367 367 368 369 372 367 366 371 368 367 365 367 367 365 364 364 362 361 360 359 361 361 359 359 363 367 362 360 359 360 361 355 353 349 349 353 349 352 351 351 365 361 358 357 355 355 358 357 355 356 356 360 349 350 352 351 349 347 347 347 350 352 353 352 351 351 352 352 353 353 353 353 354 352 352
364 366 366 364 365 366 367 366 367 366 368 367 368 370 372 368 366 365 367 372 369 368 369 367 362 362 364 362 363 360 362 361 362 360 361 364 362 361 361 364 363 361 360 357 350 354 355 350 352 355 354 358 356 353 350 352 355 356 357 359 359 357 350 360 351 350 348 345 344 344 345 347 349 347 347 349 350 351 352 351 350 350 350 349 348
362 363 363 363 362 363 362 361 361 363 364 364 365 368 369 368 366 362 363 368 368 368 366 364 361 361 364 363 363 363 363 364 363 361 362 364 364 361 363 364 365 364 363 360 356 353 360 354 355 356 355 357 358 353 353 351 360 357 362 359 363 359 370 356 352 350 347 345 344 343 342 344 344 344 346 348 349 349 350 348 346 345 344 344 342
362 361 360 361 363 362 361 363 361 363 365 365 365 367 368 369 368 367 368 369 370 367 367 365 362 363 364 364 364 364 365 363 362 360 359 361 364 363 365 365 360 363 362 362 357 354 360 363 358 354 355 355 350 354 353 352 351 354 355 356 358 356 356 356 361 349 347 345 343 342 341 342 341 341 343 346 347 347 346 344 341 339 339 338 336
361 359 360 360 360 360 361 361 361 362 364 367 365 365 366 365 367 363 364 367 369 367 365 366 366 361 364 365 365 363 365 362 360 357 358 357 358 357 358 359 357 358 363 361 358 356 355 360 357 361 356 356 351 355 354 353 355 359 356 355 354 354 355 361 363 360 346 347 344 342 341 341 341 340 342 343 345 344 341 338 335 333 334 332 330
360 359 358 358 360 362 360 361 363 363 364 366 366 365 364 365 366 364 362 365 366 365 364 364 364 365 363 363 362 362 359 359 361 357 356 357 359 358 357 358 359 359 361 364 361 358 356 356 360 354 352 354 353 354 356 355 361 358 360 357 353 353 357 360 359 354 346 348 345 345 342 341 341 339 339 339 341 339 337 334 330 329 329 328 328
352 358 357 358 360 362 360 361 363 365 365 365 364 365 365 366 366 366 366 365 365 365 364 364 363 364 363 363 362 361 362 359 360 358 358 359 361 363 362 363 362 361 363 365 366 361 359 353 357 355 354 351 353 354 354 356 355 357 359 362 360 360 362 360 359 357 352 347 346 346 344 343 340 339 337 336 336 333 331 330 329 328 327 326 326
352 352 358 359 360 362 359 361 364 366 366 366 367 364 363 364 365 365 366 366 366 366 365 365 365 365 364 364 363 364 364 360 361 358 357 358 359 360 361 362 361 362 362 363 365 365 362 357 356 358 359 358 357 357 358 355 356 358 363 364 364 366 368 363 359 354 350 342 346 345 344 344 341 339 337 336 335 333 331 330 328 326 324 323 323
352 351 353 358 358 360 361 363 364 367 368 367 368 367 364 363 363 364 365 366 365 365 366 364 365 366 364 364 363 364 363 361 360 360 361 360 361 359 360 360 359 360 362 364 364 363 361 359 358 354 357 354 357 359 362 361 357 355 358 361 364 367 370 364 361 358 357 356 359 360 345 340 338 336 338 337 335 332 331 330 329 327 324 322 320
351 350 350 354 358 360 363 364 365 366 367 366 368 370 369 366 365 364 362 361 362 362 364 362 362 363 362 362 364 364 363 363 361 361 362 362 360 360 361 361 361 360 360 361 361 361 361 360 359 359 357 358 358 355 359 365 365 360 357 359 360 363 366 367 364 361 359 357 354 347 351 347 344 349 333 334 334 332 332 330 330 328 327 322 320
351 350 349 350 354 358 361 363 366 369 370 369 371 371 370 367 364 362 361 359 359 360 361 362 363 362 361 360 360 361 362 365 365 365 364 363 365 363 362 363 363 363 361 359 358 359 359 355 351 354 355 355 359 360 357 360 361 360 364 361 357 359 361 364 366 361 361 362 360 359 351 347 341 342 332 333 333 333 333 333 331 330 327 323 322
351 352 351 349 351 355 359 361 364 367 368 368 368 369 370 369 368 362 360 360 361 361 361 361 362 362 363 363 362 363 363 364 368 368 370 371 365 364 365 366 367 365 365 365 362 359 356 354 353 356 354 355 356 357 354 353 353 354 361 361 360 361 361 360 363 365 363 358 359 358 359 354 347 346 350 354 351 343 337 334 335 334 327 324 323
355 356 355 354 355 354 357 360 363 367 368 367 369 369 368 368 367 364 364 361 360 360 361 364 361 360 360 361 362 364 366 364 365 370 367 363 361 361 362 365 368 368 365 362 360 357 358 357 356 353 350 353 353 355 352 354 357 362 360 363 359 358 359 359 359 361 362 360 356 359 360 355 347 346 347 349 347 344 341 338 332 329 327 324 323
359 361 359 359 359 358 357 357 361 361 364 363 360 350 350 357 365 364 360 362 363 363 361 362 361 360 360 360 362 363 363 363 366 368 366 364 364 361 359 362 368 369 366 362 361 362 357 355 354 355 351 351 351 351 350 350 354 356 359 361 358 357 354 351 349 357 363 361 359 356 358 359 353 345 349 349 346 341 336 332 328 326 324 323 323
365 363 360 361 362 362 362 360 358 359 356 343 334 340 345 346 357 361 361 360 360 360 362 360 360 360 360 360 359 363 360 361 361 364 366 365 361 362 363 362 361 361 362 365 364 360 360 358 356 355 352 353 352 354 352 351 354 357 361 362 359 357 356 353 352 350 363 363 357 354 352 353 351 344 348 347 345 336 331 328 326 325 324 322 322
359 360 363 363 362 361 361 360 359 358 352 333 331 334 335 336 339 352 359 359 358 358 360 361 363 363 364 362 360 363 364 360 363 360 364 364 366 362 361 363 364 361 350 349 354 365 362 359 356 354 354 352 349 352 353 357 362 357 357 354 358 357 358 354 353 353 360 361 355 352 348 352 351 345 344 347 346 339 333 329 325 325 323 322 321
360 360 362 359 358 357 359 361 362 361 345 329 328 330 332 333 336 344 356 358 358 358 362 363 362 363 364 364 363 362 364 363 364 362 362 363 366 359 356 358 361 361 362 351 349 352 360 359 359 356 360 361 357 361 363 368 364 358 355 353 357 355 355 355 358 357 359 356 352 348 346 348 349 344 342 347 346 342 337 328 324 323 323 321 321
356 358 360 356 356 357 355 355 354 343 335 320 324 326 327 330 333 345 357 356 358 359 361 361 362 362 364 363 362 359 363 365 364 362 361 361 361 359 357 356 356 359 360 359 364 365 365 362 361 361 361 365 366 367 366 372 366 366 362 360 360 358 357 359 358 358 358 358 354 348 342 343 347 341 339 340 343 343 335 325 322 323 322 321 321
351 352 352 347 345 348 348 348 352 351 335 317 319 320 321 325 331 351 357 356 356 357 358 360 360 361 361 360 359 360 360 360 356 343 352 361 358 356 355 357 360 357 362 359 339 344 365 370 370 363 363 368 349 363 366 366 367 366 364 361 360 359 355 351 348 350 350 353 350 344 339 337 347 336 334 336 340 343 341 333 326 324 323 322 321
346 346 348 345 344 346 349 351 352 346 340 322 315 315 317 319 329 354 357 356 356 356 357 358 360 360 360 360 359 356 356 359 337 327 333 349 356 354 354 354 355 356 357 357 347 337 333 330 327 328 329 330 330 329 331 332 354 357 360 353 351 353 350 345 345 343 344 347 342 340 334 331 342 339 333 333 337 340 343 338 334 324 322 321 320
345 344 344 345 344 344 343 341 344 341 336 322 313 313 314 317 331 350 353 353 355 355 356 358 358 358 358 356 357 357 355 351 325 324 328 346 354 354 352 351 350 355 357 357 355 351 333 333 331 331 331 330 332 334 333 332 332 349 356 348 350 347 343 343 339 341 342 343 337 337 333 336 337 339 335 334 335 335 338 341 340 336 321 319 318
344 344 343 339 339 340 338 338 338 339 335 327 313 311 312 314 331 351 351 351 351 351 351 351 352 353 355 354 347 339 340 333 318 320 324 341 351 351 350 350 349 350 350 357 355 354 353 353 352 352 351 347 353 356 352 345 346 351 353 354 349 342 340 341 340 339 335 336 334 339 331 336 335 334 335 331 327 333 342 341 339 339 339 339 337
Wind_Speed
6 6 5 5 5 5 5 5 4 4 4 4 4 3 3 4 3 3 4 3 3 5 2 3 2 5 3 4 4 5 4 5 4 4 4 3 3 7 8 6 4 4 4 5 5 5 5 5 5 6 7 7 8 8 7 7 7 7 7 8 9 9 10 10 10 10 10 11 11 11 11 12 12 12 13 13 13 14 14 14 14 14 14 14 14
6 6 5 5 5 5 5 4 5 3 3 4 3 3 4 3 4 4 4 4 3 5 3 4 5 5 4 4 4 5 5 5 4 4 4 4 4 6 9 7 6 5 5 6 6 6 6 6 6 7 7 7 7 7 7 8 8 9 9 10 10 10 10 10 10 11 11 11 12 12 12 13 13 14 14 14 14 14 14 14 14 14 14 14 14
6 5 5 5 4 4 4 4 4 4 2 4 4 3 3 4 4 4 4 3 3 4 3 3 3 4 4 5 4 5 5 3 4 4 6 4 4 4 8 10 8 7 7 7 7 7 7 7 7 7 7 7 8 8 8 8 9 10 10 10 10 10 10 10 11 12 12 12 12 13 13 14 14 14 14 15 15 15 15 15 14 14 14 14 14
5 5 5 4 4 4 4 3 4 3 3 3 3 3 3 3 4 3 2 2 3 3 2 3 4 4 4 5 4 4 4 2 4 5 5 5 3 4 4 7 10 9 8 8 8 9 8 8 8 8 8 9 9 10 10 10 10 10 10 10 10 10 11 11 11 12 12 13 13 13 14 14 15 15 15 15 15 15 15 15 14 14 14 14 14
4 4 4 4 4 3 4 3 3 3 3 3 3 1 2 2 3 2 2 2 3 3 2 3 5 3 4 5 5 5 3 4 3 3 5 5 4 3 4 3 6 12 11 9 9 9 9 9 9 9 9 9 10 10 11 11 11 11 11 11 11 12 12 12 12 12 13 13 13 13 14 14 14 15 15 15 15 15 14 14 14 14 14 14 14
4 3 1 4 4 3 3 3 3 2 3 1 2 2 2 2 2 2 2 2 3 3 3 4 4 3 4 4 5 4 3 4 4 5 3 4 5 3 3 4 3 5 7 13 11 10 9 8 9 9 9 9 10 10 10 11 11 11 12 12 12 12 13 13 13 13 13 12 13 13 13 13 14 14 14 14 14 14 14 14 14 13 13 14 14
3 2 2 2 3 3 3 3 3 2 2 3 1 2 2 1 2 2 2 3 3 3 3 4 3 4 4 4 4 4 3 5 3 4 4 5 2 4 3 2 3 2 3 6 12 12 11 10 10 9 9 9 10 10 11 11 11 12 12 13 13 13 13 13 13 12 12 12 12 12 12 12 13 14 14 14 13 12 12 12 12 12 12 13 14
2 1 0 1 2 2 3 3 2 2 2 2 1 1 2 1 2 2 2 4 2 2 2 2 2 4 3 3 4 2 4 3 3 3 5 2 4 3 2 3 2 2 0 0 2 8 12 10 9 10 10 10 10 11 11 12 12 13 13 13 13 13 13 13 12 12 11 12 11 11 12 12 12 12 12 12 12 12 11 11 11 11 12 12 13
2 1 1 1 2 2 3 3 2 2 2 2 1 1 1 3 1 2 2 2 1 3 3 1 1 3 3 6 5 2 3 2 3 3 3 2 2 4 3 4 3 3 3 3 2 3 12 11 11 10 10 11 11 12 12 12 13 13 13 13 13 13 13 13 12 11 11 11 11 11 11 12 12 12 12 12 12 12 11 11 11 11 11 12 12
1 0 1 2 2 2 4 3 2 2 1 2 1 1 1 1 2 2 2 2 2 2 2 3 2 2 4 5 3 2 3 2 3 1 3 2 3 2 1 2 3 2 1 2 2 1 2 11 12 11 11 11 12 11 12 12 12 12 12 12 12 12 12 12 11 11 11 10 11 11 11 11 11 12 12 11 11 12 12 11 11 11 11 12 11
1 1 1 1 1 3 2 3 1 1 1 1 2 3 2 2 2 2 1 2 2 3 3 3 2 2 3 4 4 3 2 3 2 2 1 1 3 1 3 2 2 3 2 2 2 4 1 1 3 4 8 14 11 11 11 12 11 11 11 12 12 12 12 11 11 10 10 10 10 10 10 11 11 11 11 11 11 12 12 11 10 10 11 11 11
1 1 1 1 2 2 3 2 2 1 2 2 3 2 2 3 3 3 2 0 2 1 1 1 1 2 2 1 3 3 3 1 2 3 3 3 3 1 1 3 3 2 3 3 1 1 2 1 1 2 1 9 12 10 11 10 10 10 10 11 11 11 12 11 11 10 10 10 9 10 10 11 10 10 10 10 11 11 11 11 10 10 10 11 11
2 1 1 1 1 2 2 1 1 2 2 3 4 4 3 3 2 1 2 1 1 2 3 3 2 2 1 0 3 1 4 1 0 2 3 2 3 3 2 3 3 3 2 1 1 1 3 2 1 1 1 1 7 12 11 10 10 10 10 10 10 10 10 11 10 10 9 10 10 10 10 10 10 9 9 10 10 10 10 11 11 10 11 11 10
2 1 1 1 1 2 2 2 2 2 2 2 2 2 2 2 2 1 1 2 1 3 4 2 4 1 1 1 1 3 1 2 5 3 3 3 3 3 3 2 2 3 3 3 4 4 4 3 2 1 1 3 3 2 5 8 10 12 9 9 9 9 9 10 10 10 9 10 10 10 10 9 9 9 9 9 9 9 10 11 11 11 11 12 12
3 2 2 1 2 1 2 3 2 2 1 1 2 1 2 3 2 3 3 1 1 2 1 4 3 2 1 3 1 4 3 2 1 1 2 2 1 2 1 2 3 2 2 4 3 2 0 0 1 2 2 3 4 3 4 4 1 7 8 7 7 8 8 9 9 9 9 10 9 9 9 8 8 9 9 9 9 9 10 10 10 11 11 11 12
4 3 3 2 2 1 1 2 2 1 1 1 1 2 1 2 3 3 2 2 2 3 1 2 5 1 2 2 2 2 4 3 2 2 3 1 3 1 1 2 3 2 3 4 4 2 2 2 3 3 3 3 3 3 3 4 1 6 8 6 7 6 6 7 7 7 8 8 8 8 8 7 8 8 8 9 10 10 10 10 10 11 11 11 11
3 3 2 3 2 1 1 1 2 0 0 1 0 2 3 3 3 1 3 3 3 2 2 1 2 3 3 3 2 3 1 1 2 1 3 4 2 1 3 5 1 2 4 3 2 2 4 2 1 3 3 3 4 3 4 3 3 3 2 6 2 2 4 6 6 7 7 8 8 7 7 7 7 8 9 9 10 11 11 11 11 11 11 11 10
4 3 2 2 2 1 1 1 2 2 0 2 2 1 2 0 4 2 2 3 3 4 1 2 2 2 1 1 1 5 2 4 5 3 2 4 2 2 1 3 1 4 2 3 4 4 3 4 1 4 5 3 2 4 4 4 2 2 1 5 4 3 4 4 5 6 6 8 7 7 7 7 8 8 9 10 10 11 11 12 12 11 11 11 11
4 4 2 2 2 1 1 2 1 2 2 1 2 2 2 3 3 2 3 3 3 2 3 0 3 2 1 1 2 4 2 3 3 2 3 1 4 3 2 1 3 2 3 3 3 4 2 2 6 6 4 3 4 8 7 4 5 2 5 3 3 4 4 4 3 4 6 7 7 7 8 8 9 9 10 11 11 11 12 12 12 12 11 11 12
1 3 2 3 2 2 1 1 1 1 1 2 1 1 3 3 2 1 1 1 1 2 3 5 3 3 3 4 1 1 2 3 3 5 3 3 3 4 3 2 4 3 3 3 4 3 3 3 5 4 4 4 4 2 7 5 2 2 3 4 4 4 3 4 4 4 5 7 7 8 8 9 10 10 10 11 11 12 12 12 12 12 12 12 11
2 2 3 3 3 2 1 1 1 2 2 2 2 3 1 2 2 2 2 2 1 1 2 1 2 4 2 2 4 4 2 2 1 3 4 4 4 3 4 2 5 3 2 5 5 4 4 4 3 6 4 1 1 1 1 0 5 3 4 5 4 4 4 4 4 4 5 6 8 8 8 10 10 11 11 11 11 12 12 12 12 12 13 12 12
4 4 3 3 3 3 3 2 3 3 3 1 0 1 2 2 2 3 0 1 1 2 2 1 3 3 2 1 1 2 3 3 3 3 2 0 5 5 4 4 5 4 3 4 6 7 5 5 5 4 3 3 3 3 1 2 2 1 6 4 6 4 4 5 4 4 4 6 7 8 9 10 10 11 11 11 11 12 13 13 13 13 13 13 13
3 4 4 4 4 3 4 4 3 2 2 2 4 3 4 5 3 2 2 3 2 2 2 3 3 2 4 2 3 5 2 2 2 3 4 3 3 6 3 2 6 6 5 8 7 7 5 4 5 3 2 3 2 4 6 3 3 6 4 6 5 5 5 5 4 4 4 5 7 8 9 10 10 10 11 11 11 12 13 13 13 13 13 13 13
4 3 3 5 4 4 4 3 2 3 3 3 3 3 3 1 2 2 3 3 2 3 4 3 4 3 5 4 3 4 2 3 2 2 3 2 4 5 5 3 4 3 1 4 6 8 6 5 4 3 2 2 1 2 5 5 6 6 0 8 4 4 5 4 3 3 4 5 6 7 8 9 9 10 11 11 11 12 12 13 13 14 14 14 15
4 4 5 4 4 4 4 3 3 3 2 2 2 2 3 3 1 4 2 3 4 4 4 5 4 4 4 3 4 4 2 1 3 4 1 1 4 5 5 5 4 2 2 3 5 8 6 4 2 2 3 2 1 1 3 4 4 6 4 8 3 4 2 3 3 3 4 5 6 6 8 8 9 9 10 10 11 11 12 13 13 14 14 14 15
4 4 4 4 4 5 5 4 3 2 2 2 2 3 2 4 3 4 5 3 2 3 5 5 4 5 6 4 5 3 4 2 3 3 3 4 4 3 2 4 6 4 3 3 6 7 5 4 3 1 2 3 4 2 3 5 5 5 7 2 8 5 2 2 3 3 4 5 5 6 6 7 8 9 9 9 10 10 11 12 13 13 14 14 15
3 3 3 4 4 4 4 5 4 4 4 4 4 4 3 3 3 3 4 4 3 4 5 5 5 4 4 5 4 5 3 2 5 1 4 4 3 3 2 4 4 5 5 4 5 5 6 1 4 2 2 2 3 0 3 5 6 3 5 8 5 7 6 0 3 3 4 5 6 6 6 7 8 8 8 9 10 10 11 12 12 13 13 13 14
4 4 5 5 5 5 6 6 5 5 5 5 4 4 4 4 3 4 5 4 3 4 5 6 5 6 5 4 4 5 4 5 4 3 3 3 2 2 2 3 4 5 5 5 5 2 3 4 2 2 1 1 3 3 3 8 3 3 8 5 2 4 7 1 2 2 4 5 6 5 6 6 6 7 8 9 9 10 11 11 11 12 12 13 13
5 5 6 5 5 5 5 5 6 5 5 5 5 5 5 5 6 5 5 4 4 4 5 5 5 6 5 5 4 4 4 3 5 5 3 2 3 3 3 4 2 4 5 5 3 5 3 4 4 3 1 1 3 4 2 3 5 4 5 5 4 3 8 2 2 1 3 4 5 6 6 6 7 7 8 8 9 9 10 10 10 11 12 12 12
6 5 5 5 6 6 6 6 6 6 6 5 6 6 6 5 6 5 5 4 5 6 6 6 6 5 5 6 5 5 5 5 6 6 3 3 5 5 4 3 3 4 4 4 5 5 5 3 5 2 4 3 6 4 2 2 9 4 5 5 6 5 4 5 4 3 3 2 4 6 6 6 6 7 7 8 8 9 9 9 9 10 11 11 11
6 5 5 6 6 6 6 7 7 7 7 7 6 6 6 6 6 6 6 6 6 6 6 6 6 6 6 6 6 6 5 6 6 6 5 5 5 5 3 2 4 4 4 4 6 4 4 6 5 5 4 3 4 4 5 6 6 1 5 6 6 4 5 7 8 5 6 3 3 5 5 5 6 6 7 7 8 8 9 9 9 10 10 11 12
7 7 7 7 7 7 8 8 8 8 8 8 8 7 7 6 6 6 6 6 7 7 7 6 6 5 6 6 6 6 5 6 6 6 5 5 5 5 5 5 5 5 5 5 6 6 6 6 6 6 5 3 2 5 4 7 6 7 2 5 3 4 9 1 12 5 7 5 3 4 5 5 6 6 6 7 7 8 9 9 10 10 11 12 12
8 8 8 8 7 7 8 7 8 7 7 7 6 6 6 6 6 6 6 6 7 7 7 7 7 6 6 7 7 7 7 7 6 6 7 6 6 6 5 6 6 6 6 6 6 7 6 5 6 6 5 5 5 3 6 5 6 4 6 5 5 6 5 5 4 8 7 7 4 4 4 5 6 6 6 7 7 8 9 10 10 10 11 11 12
9 9 9 8 8 8 8 8 8 7 7 7 7 7 7 8 8 7 8 9 8 8 7 7 7 7 6 7 8 8 8 8 8 8 7 7 7 8 7 7 7 6 6 7 7 6 7 6 6 6 6 5 6 4 5 6 6 5 7 6 6 6 6 4 6 6 8 7 4 2 3 4 5 6 6 6 6 7 9 9 9 9 10 10 10
9 9 9 9 8 8 8 7 7 8 7 8 8 8 8 8 8 8 8 7 8 8 9 8 8 7 8 8 8 8 7 8 8 8 8 8 7 7 7 6 7 6 7 7 6 7 8 7 6 7 6 5 5 5 6 6 5 5 5 6 6 6 5 6 6 1 10 11 4 2 1 2 4 5 5 5 6 7 7 8 9 10 10 10 10
10 9 9 9 8 8 8 8 8 8 7 8 8 8 8 8 8 9 8 8 8 8 8 8 8 8 8 8 8 8 7 8 7 7 7 7 7 7 7 7 7 8 7 6 8 7 7 7 6 7 6 7 6 7 6 5 6 5 5 5 7 6 6 7 6 4 9 11 7 5 4 3 4 5 5 5 5 8 8 9 10 10 10 10 10
10 9 8 9 8 8 9 9 9 8 8 8 8 9 8 8 9 9 9 8 8 9 9 8 8 8 8 8 8 8 8 8 8 8 8 9 8 8 8 7 7 7 7 7 7 7 7 8 7 7 7 7 7 7 6 6 5 5 4 5 6 6 5 7 7 4 10 12 12 11 10 9 8 6 5 4 5 8 9 10 11 11 11 11 11
10 10 9 8 9 9 9 8 8 8 8 8 8 8 9 9 8 9 8 8 8 8 8 9 9 9 9 9 9 8 8 9 9 8 8 8 8 8 9 8 8 7 7 8 7 8 8 8 8 8 8 8 7 6 6 6 6 6 5 5 5 4 5 6 6 6 5 1 3 5 7 9 11 10 6 4 4 7 10 11 11 11 11 11 11
11 11 11 10 8 9 9 9 8 8 8 8 8 8 8 8 8 8 9 8 8 8 9 9 9 9 10 9 9 9 9 9 10 9 8 9 8 10 9 8 8 8 8 8 7 8 8 9 8 8 8 8 8 8 7 5 5 6 6 5 5 4 4 4 6 6 5 5 4 3 3 5 4 7 10 7 7 8 10 11 10 11 11 10 10
10 11 10 10 10 9 9 9 9 8 7 8 7 8 8 9 8 8 9 9 9 9 9 8 9 9 10 10 10 10 10 9 10 9 9 8 8 9 8 8 8 8 8 8 7 5 5 7 10 8 7 7 6 6 7 6 6 6 5 4 5 5 5 4 5 5 4 4 6 3 9 10 7 8 13 9 10 10 7 9 12 11 10 10 10
9 9 10 10 10 9 9 9 8 8 8 8 8 7 8 8 6 10 10 9 10 9 9 10 10 10 9 10 10 10 9 9 9 9 8 6 7 8 7 7 8 8 7 6 3 3 6 8 10 8 7 7 8 7 7 7 7 6 4 5 5 5 5 5 4 3 3 5 6 5 4 4 4 1 5 7 6 8 10 8 7 11 11 10 10
8 8 7 8 9 10 8 9 8 8 7 7 7 7 7 6 6 6 4 7 8 10 10 9 10 10 11 10 10 10 7 11 11 8 10 10 10 11 9 8 7 7 7 7 7 7 8 9 8 9 9 5 8 7 9 6 5 4 5 5 5 5 5 5 5 3 3 4 6 5 4 2 4 2 3 3 4 4 5 6 7 7 8 9 9
6 6 6 8 8 7 9 8 9 8 8 5 8 10 8 6 6 4 5 8 8 8 9 10 10 10 10 10 10 10 10 11 12 12 11 12 13 14 14 13 11 9 8 8 7 6 7 9 9 9 7 6 8 9 12 8 6 6 5 5 5 5 6 6 6 3 1 2 4 5 5 1 3 5 3 5 3 5 5 6 6 6 7 8 9
5 6 7 7 7 8 7 9 8 7 8 7 10 9 6 4 5 6 6 6 6 7 8 11 10 8 8 9 7 7 9 9 9 10 12 15 15 14 14 14 14 15 14 10 7 7 7 8 9 10 10 7 6 6 11 10 6 5 5 5 6 5 6 6 6 6 2 2 3 4 5 3 2 5 4 3 3 5 7 6 5 6 6 8 8
6 6 6 7 7 7 8 8 8 5 4 9 5 7 7 6 6 6 7 7 8 8 10 10 8 7 7 8 7 6 5 12 12 9 8 8 11 12 13 14 13 13 14 15 13 12 9 9 8 10 10 9 10 10 11 9 4 6 5 6 5 5 5 6 6 6 1 0 1 4 5 3 2 5 5 2 1 7 8 7 5 5 6 7 8
4 5 3 5 4 8 7 3 2 1 8 8 5 5 5 4 3 3 6 8 8 11 9 8 8 7 7 6 7 8 7 7 8 9 9 9 5 3 8 12 11 13 12 14 16 17 15 12 10 11 9 9 9 9 9 5 5 7 7 7 5 6 5 5 5 5 2 2 4 4 5 5 3 5 5 2 1 5 6 6 6 6 6 6 7
3 3 4 4 5 5 6 5 1 7 7 11 8 7 3 2 3 7 5 6 7 7 7 7 7 8 8 8 8 10 10 8 7 8 9 8 7 4 7 9 10 8 9 12 12 10 11 10 11 10 8 6 7 9 9 6 6 6 6 6 5 5 5 5 5 3 1 2 2 3 5 6 1 3 3 3 3 5 7 7 8 7 5 6 6
3 4 5 5 5 3 5 10 5 3 7 12 11 10 8 8 8 6 4 4 5 7 7 8 7 7 7 7 9 10 8 11 9 14 11 7 8 10 11 10 8 9 6 5 6 8 6 4 4 6 5 3 3 5 4 4 4 4 4 6 6 4 4 4 5 4 5 3 2 2 4 6 2 4 4 5 3 4 7 7 9 9 7 6 5
2 5 5 4 3 6 4 4 4 6 6 10 10 10 10 11 9 7 6 5 6 6 6 6 6 6 7 6 7 9 9 7 11 12 13 10 8 10 10 10 8 8 4 5 4 4 8 9 10 9 6 4 4 5 6 8 5 4 4 7 7 6 6 5 5 4 2 5 3 4 4 6 1 2 4 5 4 5 3 5 8 9 11 8 7
3 3 3 4 2 4 8 9 8 6 5 8 11 11 11 12 10 7 6 7 6 5 6 6 6 6 7 11 9 7 8 7 9 8 8 7 10 10 10 10 12 9 7 4 4 2 6 6 7 7 6 6 6 5 5 5 3 4 6 8 6 5 6 6 6 6 3 5 4 5 4 5 3 2 3 5 5 6 5 2 1 7 9 9 8
3 4 7 6 5 4 6 8 8 6 5 6 10 11 12 13 10 4 4 5 5 5 6 6 6 6 7 4 10 8 6 6 6 6 5 6 8 9 9 8 9 9 9 7 6 6 5 3 2 2 3 4 2 0 4 9 9 8 8 6 8 8 5 6 4 2 4 5 5 6 4 3 3 1 2 4 5 1 2 3 3 2 2 2 6
Wind_Direction
125 117 115 114 126 134 126 122 111 121 137 116 106 118 89 79 66 73 67 43 57 60 35 74 98 87 71 92 101 104 72 83 85 90 75 92 110 138 174 189 215 237 236 266 270 277 286 280 286 284 291 296 295 299 304 302 298 301 299 304 307 309 307 305 304 300 300 299 298 297 297 294 293 291 289 287 286 285 285 284 284 286 287 287 286
116 117 123 128 126 124 117 122 119 115 115 98 107 98 91 93 77 53 50 37 42 53 19 42 58 85 71 91 66 84 111 100 95 90 102 100 101 129 173 185 213 216 233 243 263 273 276 282 278 280 278 284 283 286 288 293 296 300 302 302 300 301 302 301 300 299 295 295 292 289 288 286 284 284 283 284 281 280 281 281 281 281 283 283 283
121 126 126 131 124 118 117 119 118 112 112 109 97 79 69 59 47 40 54 43 30 50 17 61 66 70 79 79 94 97 82 99 134 137 111 92 90 124 154 185 199 217 225 232 245 254 262 277 282 283 288 288 291 293 295 294 297 298 300 299 300 300 302 300 296 293 291 289 289 287 283 281 279 279 277 276 275 275 275 275 276 276 277 278 278
119 131 125 123 118 118 115 109 103 110 95 89 85 81 73 79 73 49 41 32 42 49 2 64 57 61 104 80 95 84 90 82 85 81 89 98 117 110 134 163 192 209 218 227 228 236 248 254 268 273 276 280 282 286 286 288 289 292 294 294 294 294 293 292 288 286 285 284 283 282 279 278 277 275 274 273 275 274 273 272 272 272 272 273 275
118 111 126 114 103 106 113 107 100 100 96 81 86 95 109 122 96 99 39 48 49 39 3 63 78 61 45 86 80 93 103 107 108 106 93 124 116 112 106 131 165 192 209 218 222 232 236 246 254 260 265 270 274 276 279 282 286 288 289 289 288 287 287 286 285 282 282 280 278 278 276 275 273 273 272 271 271 270 269 268 269 272 271 271 272
114 98 106 122 116 105 85 94 95 90 103 114 124 102 90 70 80 102 83 42 70 35 29 46 59 58 58 72 85 75 101 92 91 103 120 87 93 117 134 133 158 169 185 200 215 221 230 236 243 251 259 262 269 272 275 278 280 281 280 281 280 280 279 280 281 279 277 275 275 274 272 272 273 272 271 270 270 270 273 277 276 273 270 269 270
88 105 100 99 132 118 110 89 66 66 82 85 6 91 89 136 69 24 45 79 29 74 33 42 49 87 65 61 62 72 73 86 68 111 109 97 104 91 95 116 117 147 177 172 192 209 216 224 232 242 248 258 260 266 267 269 270 270 271 273 274 273 274 276 277 276 273 273 273 271 271 269 270 274 273 273 273 272 271 272 270 269 268 267 270
106 63 169 156 107 112 95 80 79 81 69 78 83 88 80 43 42 23 40 31 357 76 68 56 52 69 83 94 97 114 97 86 123 80 85 126 97 114 117 118 147 97 39 170 146 164 196 212 227 230 242 247 251 255 259 260 262 264 267 268 270 272 273 275 275 274 274 275 273 272 271 271 266 268 269 272 271 272 273 270 269 267 267 268 269
124 78 276 140 120 128 121 103 90 88 96 103 95 69 322 102 83 13 36 350 346 47 64 42 95 85 92 81 83 61 72 94 96 103 100 115 178 147 147 130 122 174 199 169 160 147 178 198 210 227 231 238 241 244 248 253 256 262 265 267 268 270 273 275 274 276 279 279 277 276 275 274 272 274 277 275 273 274 276 275 273 270 267 269 267
137 118 339 1 46 40 69 81 89 74 76 86 80 68 87 21 76 33 18 333 360 30 43 355 13 77 76 82 65 85 121 121 91 169 137 144 144 123 140 99 168 139 58 37 89 116 141 182 200 213 222 227 233 237 242 246 251 256 260 263 267 270 272 274 274 276 278 278 279 279 278 274 271 277 279 276 273 276 277 277 274 271 271 269 268
133 155 275 104 120 90 90 79 94 79 82 115 93 78 44 55 18 56 360 355 358 19 17 332 358 359 69 71 97 104 99 109 169 145 128 68 64 183 149 161 145 155 146 192 177 152 169 16 197 212 199 208 220 227 232 240 246 251 256 261 266 270 274 276 276 279 279 277 278 276 283 284 283 282 279 278 275 276 275 274 272 269 274 270 269
119 97 47 33 95 114 94 116 81 77 49 53 76 86 50 50 54 34 26 292 170 296 76 287 17 31 40 127 88 100 82 111 173 158 172 183 158 250 218 149 165 159 155 179 91 112 120 150 244 216 320 180 205 217 226 236 242 246 250 257 264 268 269 272 274 280 284 283 281 291 293 294 287 283 279 279 278 275 276 277 273 269 267 267 266
118 119 119 101 86 92 102 71 83 67 58 50 57 42 32 19 51 33 17 36 54 222 102 332 353 163 171 200 132 153 130 206 271 197 177 171 154 184 155 197 161 164 159 104 167 127 159 175 186 241 223 339 200 205 220 226 231 233 238 248 253 260 268 275 278 282 289 294 298 302 301 298 293 287 284 282 281 283 283 281 278 269 264 263 265
130 127 112 156 142 125 107 94 88 73 51 57 61 54 19 16 22 77 194 60 121 353 46 287 221 21 324 146 145 129 27 198 205 157 205 156 172 171 166 239 204 154 149 133 183 185 180 161 205 308 310 276 298 292 206 212 215 217 225 231 244 258 268 278 285 289 295 305 307 308 305 301 299 297 296 297 296 293 289 287 285 281 274 269 268
150 170 164 174 104 90 155 122 70 94 92 80 86 55 33 32 27 38 3 158 108 106 67 307 318 90 108 252 114 178 148 192 256 150 282 127 200 135 284 233 155 169 153 188 173 196 251 192 238 270 288 277 291 284 277 273 285 162 208 229 247 257 267 278 286 294 297 302 311 309 307 308 310 311 311 311 307 302 299 298 296 291 285 278 272
169 183 143 111 120 116 93 106 116 71 61 40 21 89 54 47 37 42 1 302 157 101 71 75 321 334 219 326 137 257 165 192 187 153 198 45 314 31 50 227 164 170 186 239 177 182 182 231 223 244 262 285 289 285 279 306 102 221 221 229 231 248 268 290 298 305 308 304 312 313 316 317 317 317 316 314 314 314 313 310 303 299 295 290 281
174 179 149 115 107 119 95 100 108 89 360 160 171 57 35 54 55 33 19 7 4 20 78 25 93 355 359 249 166 190 339 133 197 123 266 208 174 234 107 279 100 113 245 261 353 229 260 230 203 259 267 265 249 267 291 298 292 333 234 185 205 291 305 302 308 315 316 319 319 322 323 324 325 324 320 318 320 322 320 316 311 305 301 296 289
182 192 143 136 128 137 170 216 147 152 246 12 33 98 157 36 82 1 33 45 349 315 51 132 61 70 305 30 114 346 345 360 280 156 298 294 257 230 217 294 281 169 245 258 225 247 201 250 223 248 236 248 306 289 315 297 295 279 5 66 356 322 316 313 317 332 333 328 328 326 326 334 334 329 327 326 324 324 321 318 315 311 307 301 294
177 172 158 150 149 143 174 224 163 152 150 159 198 249 96 76 55 60 18 17 337 331 306 45 61 268 189 3 42 307 349 308 338 305 226 158 294 300 238 281 278 261 242 242 241 240 249 360 282 300 322 297 3 340 306 346 350 73 80 19 325 349 354 339 337 348 343 335 335 339 337 338 339 336 334 331 327 324 321 320 318 317 311 306 303
180 156 201 182 202 187 189 233 232 140 169 188 225 9 44 62 97 70 36 327 335 328 343 350 357 322 41 312 165 126 312 277 321 335 291 278 238 244 277 235 295 291 292 288 293 327 329 290 287 310 305 9 44 352 317 348 83 328 90 30 23 20 27 24 16 1 352 349 352 343 341 341 338 337 336 331 329 327 325 323 320 317 312 307 308
201 207 187 214 211 215 200 241 232 216 221 185 212 130 180 104 161 187 191 188 233 28 298 7 228 243 60 315 344 319 293 316 167 250 301 314 307 338 292 317 283 310 328 306 310 318 305 309 3 280 275 29 98 166 74 360 304 75 54 55 49 54 54 43 22 14 356 348 346 343 342 340 340 339 334 332 329 324 322 320 319 318 314 311 310
177 196 197 212 220 218 216 206 220 216 244 78 138 142 184 198 210 211 274 297 202 224 245 217 288 329 300 101 263 287 302 290 278 248 228 234 276 275 288 333 299 260 282 295 346 320 311 321 290 279 17 331 15 341 51 56 297 54 77 60 64 55 50 44 35 3 0 344 340 346 347 345 345 341 336 332 328 324 321 319 319 319 317 314 313
216 165 194 201 196 215 232 201 228 166 230 221 219 227 191 193 199 156 233 235 215 235 267 241 254 284 269 218 250 242 200 260 284 330 315 281 302 298 301 216 297 307 351 344 326 286 284 276 281 315 23 300 37 31 327 330 47 69 87 72 65 49 40 49 27 7 359 341 341 349 352 349 345 340 335 333 333 330 327 324 323 322 321 318 314
216 221 202 196 180 201 215 237 217 237 213 227 242 232 261 210 195 205 218 223 242 249 254 267 265 215 264 256 248 276 223 251 266 190 213 307 315 305 297 307 294 33 323 287 295 298 290 280 274 288 274 338 3 94 245 259 93 46 114 90 66 40 49 30 11 10 342 346 346 349 348 345 340 339 339 340 341 338 334 333 328 328 328 327 326
229 221 203 207 190 194 216 215 213 223 267 316 271 264 287 285 287 238 232 226 222 222 227 238 242 280 281 265 260 269 279 281 296 287 8 13 251 263 306 336 304 290 336 318 297 277 270 280 298 325 349 306 2 345 319 309 69 57 315 120 86 84 47 10 6 345 352 342 344 345 345 341 338 337 340 343 341 342 342 338 336 337 339 339 337
214 209 236 221 209 196 198 212 216 214 210 222 253 260 244 271 249 255 250 218 260 241 255 257 248 237 241 269 270 264 267 223 233 252 266 226 241 270 300 303 298 318 304 277 240 266 241 224 246 152 278 356 337 355 337 317 112 80 329 303 133 129 94 11 332 342 336 340 342 344 340 336 342 344 340 346 345 346 346 342 342 346 347 347 346
225 220 220 235 230 219 207 221 205 208 207 218 226 214 220 235 261 267 312 273 245 265 266 263 262 255 259 253 273 276 272 272 277 232 276 302 315 307 325 303 300 288 261 233 242 243 302 293 272 185 79 328 311 320 339 328 92 140 264 268 116 137 133 135 335 339 329 331 336 336 336 340 345 342 347 352 353 349 348 346 347 350 351 351 352
221 224 213 214 221 223 213 215 217 212 212 215 224 231 199 230 231 250 247 248 230 244 258 264 259 259 269 280 280 278 270 268 280 266 246 268 298 328 272 260 287 299 307 303 307 264 237 281 227 340 293 16 320 277 144 270 64 16 234 278 331 153 121 124 294 347 346 339 336 337 332 347 343 345 351 357 353 352 350 349 352 352 353 353 355
232 210 223 211 220 223 224 224 205 212 218 216 221 218 213 225 225 220 234 257 295 271 267 262 270 274 253 238 252 270 282 279 275 273 267 304 285 269 265 270 278 282 291 290 284 306 285 298 306 159 351 291 296 306 265 297 70 333 331 318 314 313 115 168 247 41 358 342 340 342 346 341 351 349 357 359 353 354 354 352 351 352 356 355 358
222 235 218 216 212 219 228 225 227 221 225 222 215 215 214 226 227 222 232 227 223 241 249 255 258 256 262 264 254 250 243 247 236 242 239 208 245 244 237 235 226 264 291 290 293 293 294 251 260 117 187 241 249 241 273 301 118 283 326 314 308 357 124 213 229 187 99 22 346 347 344 346 350 356 359 355 357 356 0 360 357 356 357 357 359
225 227 241 231 217 212 219 225 215 222 217 221 218 221 219 230 227 226 218 212 231 241 245 242 248 249 256 257 252 255 258 260 272 264 241 212 228 242 249 244 239 251 262 274 275 258 296 299 301 318 317 287 301 320 312 311 143 188 310 322 308 36 273 224 190 190 106 91 9 346 351 356 356 0 359 6 2 2 8 5 359 360 358 357 358
215 213 225 234 230 223 213 218 226 218 215 217 219 213 220 231 234 233 224 209 226 233 244 245 243 233 231 240 246 252 252 251 249 251 245 240 248 233 223 220 223 236 240 253 260 276 277 287 300 299 274 295 304 282 300 296 126 168 330 291 294 239 256 304 159 170 109 100 43 357 356 359 4 4 6 6 5 11 11 10 5 2 2 2 2
221 216 215 223 228 229 239 235 231 226 222 229 224 225 223 222 230 241 248 230 225 236 235 244 250 246 242 247 249 248 247 250 250 249 246 227 218 231 222 228 238 228 230 235 253 266 262 271 285 280 296 294 289 304 289 288 299 323 316 305 304 298 301 314 137 134 116 86 62 3 357 6 8 13 14 14 16 14 14 11 7 2 1 2 3
221 223 221 219 215 223 229 230 237 239 225 220 236 230 226 225 232 230 225 227 232 239 247 240 240 251 243 238 244 243 235 240 245 246 244 242 228 225 214 221 232 234 217 236 247 261 267 265 267 284 286 281 278 262 281 300 310 316 310 314 301 302 311 322 308 116 122 94 88 357 4 6 18 26 23 27 19 15 15 12 5 2 2 4 3
217 226 224 224 224 220 228 233 229 232 233 232 230 237 235 229 234 243 244 227 226 235 231 233 238 238 240 241 242 242 245 239 235 245 247 252 254 252 250 241 242 237 222 218 239 252 264 268 262 266 268 268 281 290 290 287 302 289 297 296 310 307 323 315 307 79 137 125 134 206 360 357 53 40 44 43 34 20 20 14 13 11 10 9 9
230 219 228 233 221 216 226 226 225 231 229 228 236 232 229 236 240 240 242 247 245 237 241 243 239 236 241 242 246 249 252 253 248 251 251 247 246 242 245 244 246 244 243 229 226 249 262 271 267 277 282 285 283 282 275 272 279 307 297 311 304 309 323 311 301 314 138 135 166 207 178 136 90 72 67 65 50 37 32 26 17 16 14 14 14
229 230 214 222 231 220 223 222 222 223 225 227 228 236 239 235 237 241 241 240 239 242 245 245 245 249 249 248 246 245 242 248 247 244 244 239 243 248 244 243 243 241 237 235 234 237 248 261 272 269 274 272 266 271 274 274 283 279 275 279 295 302 307 305 305 337 138 164 175 204 171 164 130 93 80 88 73 54 46 34 24 19 16 12 12
229 230 230 219 217 219 224 230 226 219 222 227 226 235 241 243 238 241 244 245 246 248 247 244 242 241 243 244 248 248 249 247 249 249 250 254 250 246 249 249 247 243 240 241 244 246 251 258 266 270 262 263 264 260 259 263 269 285 290 284 277 286 286 298 319 320 322 235 231 188 162 155 131 113 116 107 125 85 64 46 32 25 19 14 10
228 230 227 227 227 226 220 224 231 227 222 224 226 225 237 250 255 252 255 248 248 245 242 245 247 241 240 242 242 244 248 250 253 253 248 244 245 252 250 250 249 249 247 246 247 250 250 253 257 263 266 258 264 262 256 239 254 269 283 288 292 299 280 293 302 316 314 329 121 112 347 329 121 158 130 129 134 118 81 64 48 32 23 19 13
230 233 235 231 226 229 229 222 221 226 224 228 227 230 234 238 240 252 239 250 252 252 255 255 255 252 246 246 247 247 246 244 246 248 251 253 253 253 251 249 248 250 255 255 254 271 300 298 280 274 271 278 262 270 272 244 250 252 244 267 282 295 294 278 292 304 321 303 302 190 200 202 191 144 139 135 121 108 126 110 71 40 24 20 18
234 233 235 242 242 236 232 231 225 216 227 226 229 225 229 230 229 250 251 245 244 246 250 254 250 252 258 257 259 260 267 280 266 263 277 301 278 262 259 258 257 253 254 255 243 248 246 247 256 264 270 266 259 263 272 260 257 261 270 285 287 282 281 285 282 284 289 304 303 318 328 349 318 246 181 189 136 127 84 37 81 63 29 19 19
233 238 249 248 247 243 238 233 229 225 231 235 218 208 220 242 246 261 349 329 304 293 277 262 261 254 249 253 251 247 265 282 277 245 238 245 254 261 264 259 254 248 249 254 251 250 250 257 268 272 266 297 313 283 257 258 256 244 254 251 274 288 289 288 280 263 269 300 323 320 306 327 326 312 300 298 112 62 50 47 34 16 18 18 24
242 240 239 245 250 253 250 243 230 222 235 334 328 192 204 240 269 254 220 233 236 243 263 277 268 265 265 260 259 241 228 239 240 232 236 237 236 238 248 256 267 260 247 243 244 245 261 265 257 258 265 261 248 271 280 264 267 277 286 287 281 289 290 290 291 278 181 294 296 307 286 311 314 296 292 315 42 50 63 63 22 32 25 30 30
226 237 240 243 252 257 255 254 254 251 71 53 30 12 8 359 272 266 258 251 253 254 243 247 254 258 261 265 279 330 322 320 289 255 238 234 235 240 239 240 240 246 256 252 243 241 247 261 268 268 266 245 246 264 271 275 264 258 255 269 270 275 283 284 288 298 109 261 301 287 307 188 279 297 288 290 91 75 70 64 53 37 37 35 35
254 246 242 251 252 257 260 263 268 57 93 75 84 59 61 51 29 302 262 267 276 285 266 261 266 267 270 272 272 242 210 248 271 271 275 279 254 244 260 250 246 245 238 240 242 248 243 237 247 263 263 271 258 247 255 267 274 266 269 261 262 262 269 278 291 302 135 210 256 280 283 282 300 284 288 287 177 122 126 99 62 59 46 47 37
281 278 342 322 328 283 281 303 296 75 77 29 25 86 98 122 127 241 259 270 252 248 265 287 287 289 285 286 284 274 269 264 264 273 278 270 282 342 286 275 271 255 247 237 234 233 236 242 241 248 251 250 256 262 267 247 240 256 258 265 264 266 266 279 306 298 292 254 291 308 292 267 273 317 296 305 131 114 95 104 101 75 64 53 47
356 13 7 3 332 346 347 314 344 60 48 17 7 6 335 299 192 236 238 254 275 287 284 280 283 281 282 274 262 268 278 279 276 289 283 290 290 261 256 258 265 289 288 284 265 239 233 222 235 241 251 265 285 266 251 233 249 253 265 275 280 281 284 284 255 267 211 142 264 256 292 310 277 268 290 273 247 139 125 131 114 103 84 70 59
50 46 43 9 21 8 341 309 298 90 66 32 5 344 334 292 288 255 248 266 269 278 279 278 283 284 287 294 293 291 290 283 351 10 352 316 280 280 276 271 268 258 249 241 305 331 330 328 264 253 257 209 202 275 352 303 244 244 274 263 244 241 250 241 248 226 206 142 280 298 301 297 343 314 312 297 283 235 149 131 143 123 111 100 82
29 82 74 84 306 314 306 290 288 74 49 32 14 353 334 330 293 283 284 271 269 270 279 285 287 289 290 306 303 287 296 299 27 11 14 344 296 284 281 281 280 279 263 270 270 359 12 36 37 39 38 56 55 35 37 26 15 335 283 273 254 248 238 245 247 250 220 152 87 358 335 293 309 297 304 310 296 294 234 162 147 149 143 130 117
167 107 71 70 55 17 47 45 36 65 60 34 23 4 353 347 323 305 306 290 292 294 290 293 296 300 307 311 343 335 337 356 18 26 1 336 293 291 288 291 288 285 287 280 281 308 112 107 99 88 57 24 29 42 50 8 345 276 240 253 264 256 261 269 265 258 131 110 64 11 321 286 327 297 308 308 286 244 231 241 321 147 149 155 138
107 107 93 87 75 64 76 72 53 57 61 48 32 18 8 2 346 337 342 326 318 332 319 317 335 318 312 6 57 33 9 5 11 23 17 327 303 294 300 304 290 281 275 283 277 273 270 231 193 160 136 119 173 238 49 4 329 318 277 266 268 269 258 260 292 25 268 120 40 9 317 308 315 320 340 313 306 287 167 276 272 302 274 249 171